Location: Bakov nad Jizerou
(50.4784°N, 14.9394°E)
Time: 12:28:22
(UTC+00:00)

Cosmos 1536 Rocket - Pass Details

Date: 18 October 2021
Orbit: 605 x 632 km, 82.5° (Epoch: 29 November)

Event Time Altitude Azimuth Distance (km) Brightness Sun altitude
Rises 17:43:42 0° 333° (NNW) 2,881 7.4 -16.9°
Reaches altitude 10° 17:47:00 10° 306° (NW) 1,966 7.0 -17.4°
Maximum altitude 17:49:01 13° 278° (W) 1,764 7.1 -17.7°
Drops below altitude 10° 17:51:00 10° 251° (WSW) 1,956 7.1 -18.0°
Sets 17:54:17 0° 224° (SW) 2,852 7.5 -18.6°
